Franklin, NC

10:38 PM EST on December 16, 2017 (GMT -0500)
Franklin

Weather History for K1A5 - August, 2013

Change the Weather History Date:

Saturday, August 24, 2013

  Actual Average (KTOC) Record (KTOC)
Temperature  
Mean Temperature 70 °F -  
Max Temperature 81 °F 85 °F 92 °F (2015)
Min Temperature 59 °F 65 °F 68 °F (2015)
Cooling Degree Days 5    
Growing Degree Days 20 (Base 50)    
Moisture  
Dew Point 61 °F    
Average Humidity 82    
Maximum Humidity 100    
Minimum Humidity 48    
Precipitation  
Precipitation 0.00 in - - ()
Sea Level Pressure  
Sea Level Pressure 30.26 in    
Wind  
Wind Speed 1 mph (SSE)    
Max Wind Speed 9 mph    
Max Gust Speed -    
Visibility 7 miles    
Events Fog    
Averages and records for this station are not official NWS values.
T = Trace of Precipitation, MM = Missing Value Source: NWS Daily Summary

Daily Weather History Graph

Daily Weather History Graph

Search for Another Location

Airport or City:

Trip Planner

Search our weather history database for the weather conditions in past years. The results will help you decide how hot, cold, wet, or windy it might be!

Date:

Astronomy

Aug. 24, 2013 Rise Set
Actual Time 7:00 AM EDT 8:10 PM EDT
Civil Twilight 6:34 AM EDT 8:37 PM EDT
Nautical Twilight 6:02 AM EDT 9:08 PM EDT
Astronomical Twilight 5:30 AM EDT 9:40 PM EDT
Moon 10:16 PM EDT (8/24) 10:47 AM EDT (8/24)
Length of Visible Light 14h 03m
Length of Day
13h 10m
Waning Gibbous, 84% of the Moon is Illuminated
Aug 24
Waning Gibbous
Aug 28
Last Quarter
Sep 5
New
Sep 12
First Quarter
Sep 19
Full

Hourly Weather History & Observations

Time (EDT) Temp. Heat Index Dew Point Humidity Pressure Visibility Wind Dir Wind Speed Gust Speed Precip Events Conditions
12:15 AM 62.8 °F - 62.4 °F 99% 30.20 in 0.8 mi Calm Calm - N/A   Overcast
12:35 AM 62.6 °F - 62.1 °F 98% 30.20 in 0.5 mi Calm Calm - N/A Fog Fog
12:55 AM 62.6 °F - 61.9 °F 97% 30.20 in 0.2 mi Calm Calm - N/A Fog Fog
1:15 AM 62.6 °F - 61.9 °F 97% 30.19 in 0.2 mi Calm Calm - N/A Fog Fog
1:35 AM 62.6 °F - 61.9 °F 97% 30.18 in 1.0 mi Calm Calm - N/A   Overcast
1:55 AM 62.2 °F - 61.5 °F 97% 30.18 in 5.0 mi Calm Calm - N/A   Overcast
2:15 AM 62.2 °F - 61.5 °F 97% 30.18 in 4.0 mi ENE 4.6 mph - N/A   Overcast
2:35 AM 60.4 °F - 59.9 °F 98% 30.18 in 2.0 mi Calm Calm - N/A   Overcast
2:55 AM 60.8 °F - 59.9 °F 97% 30.18 in 0.8 mi Calm Calm - N/A   Overcast
3:15 AM 60.8 °F - 59.9 °F 97% 30.20 in 0.5 mi Calm Calm - N/A Fog Fog
3:35 AM 60.8 °F - 59.9 °F 97% 30.20 in 0.5 mi Calm Calm - N/A Fog Fog
3:55 AM 60.8 °F - 59.9 °F 97% 30.20 in 1.0 mi Calm Calm - N/A   Overcast
4:15 AM 60.8 °F - 59.9 °F 97% 30.20 in 1.5 mi Calm Calm - N/A   Overcast
4:35 AM 60.8 °F - 59.9 °F 97% 30.21 in 2.5 mi Calm Calm - N/A   Overcast
4:55 AM 60.6 °F - 59.7 °F 97% 30.21 in 1.8 mi Calm Calm - N/A   Overcast
5:15 AM 60.8 °F - 59.9 °F 97% 30.21 in 1.2 mi Calm Calm - N/A   Overcast
5:35 AM 60.8 °F - 59.9 °F 97% 30.22 in 1.5 mi Calm Calm - N/A   Overcast
5:55 AM 60.4 °F - 59.5 °F 97% 30.22 in 1.8 mi Calm Calm - N/A   Overcast
6:15 AM 60.4 °F - 59.4 °F 96% 30.23 in 2.5 mi Calm Calm - N/A   Overcast
6:35 AM 60.3 °F - 59.2 °F 96% 30.24 in 1.5 mi Calm Calm - N/A   Overcast
6:55 AM 59.9 °F - 59.0 °F 97% 30.24 in 2.0 mi Calm Calm - N/A   Overcast
7:15 AM 59.9 °F - 59.0 °F 97% 30.25 in 2.0 mi Calm Calm - N/A   Overcast
7:35 AM 59.9 °F - 59.0 °F 97% 30.26 in 1.5 mi Calm Calm - N/A   Overcast
7:55 AM 59.9 °F - 59.0 °F 97% 30.27 in 1.2 mi Calm Calm - N/A   Overcast
8:15 AM 59.9 °F - 59.0 °F 97% 30.27 in 5.0 mi Calm Calm - N/A   Overcast
8:35 AM 60.4 °F - 59.4 °F 96% 30.28 in 5.0 mi Calm Calm - N/A   Overcast
8:55 AM 61.0 °F - 60.1 °F 97% 30.28 in 5.0 mi Calm Calm - N/A   Overcast
9:15 AM 61.0 °F - 60.1 °F 97% 30.29 in 7.0 mi Calm Calm - N/A   Overcast
9:35 AM 61.3 °F - 61.2 °F 99% 30.29 in 7.0 mi Calm Calm - N/A   Overcast
9:55 AM 61.9 °F - 61.9 °F 100% 30.29 in 7.0 mi Calm Calm - N/A   Overcast
10:15 AM 62.8 °F - 62.8 °F 100% 30.29 in 7.0 mi Calm Calm - N/A   Overcast
10:35 AM 63.0 °F - 62.8 °F 99% 30.30 in 7.0 mi Calm Calm - N/A   Overcast
10:55 AM 64.2 °F - 63.1 °F 96% 30.30 in 7.0 mi Calm Calm - N/A   Overcast
11:15 AM 65.5 °F - 62.6 °F 90% 30.30 in 10.0 mi Calm Calm - N/A   Overcast
11:35 AM 67.5 °F - 61.7 °F 82% 30.30 in 10.0 mi Calm Calm - N/A   Scattered Clouds
11:55 AM 69.1 °F - 62.8 °F 80% 30.30 in 10.0 mi Calm Calm - N/A   Clear
12:15 PM 71.2 °F - 63.3 °F 76% 30.29 in 10.0 mi Calm Calm - N/A   Clear
12:35 PM 72.9 °F - 61.9 °F 68% 30.28 in 10.0 mi Calm Calm - N/A   Clear
12:55 PM 74.7 °F - 62.1 °F 65% 30.28 in 10.0 mi Calm Calm - N/A   Clear
1:15 PM 75.7 °F - 61.7 °F 62% 30.27 in 10.0 mi Calm Calm - N/A   Clear
1:35 PM 76.6 °F - 62.1 °F 61% 30.26 in 10.0 mi Calm Calm - N/A   Clear
1:55 PM 79.0 °F - 60.4 °F 53% 30.26 in 10.0 mi Calm Calm - N/A   Clear
2:15 PM 80.4 °F 81.5 °F 61.7 °F 53% 30.25 in 10.0 mi Calm Calm - N/A   Scattered Clouds
2:35 PM 80.1 °F 80.7 °F 58.8 °F 48% 30.25 in 10.0 mi Calm Calm - N/A   Clear
2:55 PM 81.3 °F 81.9 °F 60.3 °F 49% 30.25 in 10.0 mi Calm Calm - N/A   Clear
3:15 PM 78.8 °F - 62.8 °F 58% 30.25 in 10.0 mi South 9.2 mph - N/A   Clear
3:35 PM 79.9 °F - 62.4 °F 55% 30.25 in 10.0 mi SSE 6.9 mph - N/A   Clear
3:55 PM 79.7 °F - 61.9 °F 54% 30.25 in 10.0 mi SSE 5.8 mph - N/A   Mostly Cloudy
4:15 PM 79.3 °F - 61.7 °F 55% 30.25 in 10.0 mi SSE 6.9 mph - N/A   Overcast
4:35 PM 78.4 °F - 61.7 °F 56% 30.25 in 10.0 mi SE 4.6 mph - N/A   Scattered Clouds
4:55 PM 78.4 °F - 61.5 °F 56% 30.25 in 10.0 mi SSE 6.9 mph - N/A   Scattered Clouds
5:15 PM 79.0 °F - 61.7 °F 55% 30.26 in 10.0 mi South 8.1 mph - N/A   Mostly Cloudy
5:35 PM 77.9 °F - 61.9 °F 58% 30.26 in 10.0 mi SSW 3.5 mph - N/A   Overcast
5:55 PM 77.5 °F - 61.0 °F 57% 30.26 in 10.0 mi Calm Calm - N/A   Overcast
6:15 PM 76.1 °F - 61.7 °F 61% 30.27 in 10.0 mi Calm Calm - N/A   Overcast
6:35 PM 76.5 °F - 60.8 °F 58% 30.27 in 10.0 mi South 3.5 mph - N/A   Mostly Cloudy
6:55 PM 73.9 °F - 60.8 °F 63% 30.27 in 10.0 mi Calm Calm - N/A   Mostly Cloudy
7:15 PM 72.9 °F - 60.3 °F 65% 30.28 in 10.0 mi Calm Calm - N/A   Overcast
7:35 PM 72.1 °F - 60.6 °F 67% 30.29 in 10.0 mi Calm Calm - N/A   Overcast
7:55 PM 71.2 °F - 60.3 °F 68% 30.29 in 10.0 mi Calm Calm - N/A   Mostly Cloudy
8:15 PM 70.0 °F - 60.1 °F 71% 30.29 in 10.0 mi Calm Calm - N/A   Mostly Cloudy
8:35 PM 68.9 °F - 60.8 °F 75% 30.30 in 10.0 mi Calm Calm - N/A   Overcast
8:55 PM 68.9 °F - 61.0 °F 76% 30.30 in 10.0 mi Calm Calm - N/A   Overcast
9:15 PM 68.0 °F - 61.7 °F 80% 30.31 in 10.0 mi Calm Calm - N/A   Overcast
9:35 PM 67.1 °F - 61.7 °F 83% 30.32 in 10.0 mi Calm Calm - N/A   Overcast
9:55 PM 66.2 °F - 61.9 °F 86% 30.33 in 10.0 mi Calm Calm - N/A   Overcast
10:15 PM 65.7 °F - 62.1 °F 88% 30.34 in 10.0 mi Calm Calm - N/A   Overcast
10:35 PM 64.6 °F - 61.7 °F 90% 30.35 in 10.0 mi Calm Calm - N/A   Overcast
10:55 PM 64.4 °F - 61.0 °F 89% 30.35 in 10.0 mi Calm Calm - N/A   Mostly Cloudy
11:15 PM 63.5 °F - 61.3 °F 93% 30.36 in 10.0 mi Calm Calm - N/A   Scattered Clouds
11:35 PM 61.9 °F - 60.6 °F 96% 30.37 in 7.0 mi Calm Calm - N/A   Clear
11:55 PM 61.3 °F - 60.6 °F 97% 30.38 in 7.0 mi Calm Calm - N/A   Clear